Location: Skalnate Pleso
(49.1889°N, 20.2450°E)
Time: 13:31:06
(UTC+02:00)

Cosmos 1269 Rocket - Pass Details

Date: 01 March 2020
Orbit: 772 x 780 km, 74.1° (Epoch: 05 April)

Event Time Altitude Azimuth Distance (km) Brightness Sun altitude
Exits shadow 03:06:32 11° 342° (NNW) 2,238 6.5 -31.7°
Drops below altitude 10° 03:07:08 10° 349° (NNW) 2,333 6.7 -31.6°
Sets 03:10:54 0° 16° (NNE) 3,267 7.8 -31.0°
